Back to catalog

STARLINK-34641

AliveCommunicationsVLEO
NORAD 64797·PAYLOAD·🇺🇸 United States

Launched Jul 16, 2025 from Vandenberg Space Force Base

Loading…

Next Passes (next 24 hours)

TLE

FreshSource: CelesTrak SupGP

Epoch: Sep 14, 2026, 21:16 UTC

1 64797C 25150H   26257.88659722 -.00024101  00000+0 -20198-2 0  2573
2 64797  70.0026  17.3822 0003523 273.9163 230.7290 14.98340328    13

Track STARLINK-34641 in real time with AllMySat

Download on the App Store